GW5798 Weather Reports


Display with metric or nautical units.
time (UTC)temp
F
wind
direction
speed
MPH
gust
MPH
rain 1hr
in
rain 24hr
in
rain mn
in
humidity
%
barometer
mb
20260507184019 73 273 2.0 4.0 0.00 0.00 0.00 71 1016.0
20260507183110 72 252 2.0 7.0 0.00 0.00 0.00 72 1016.0
20260507182140 72 249 1.0 4.0 0.00 0.00 0.00 74 1016.2
20260507181051 72 49 1.0 3.0 0.00 0.00 0.00 73 1016.1
20260507180040 71 182 1.0 6.0 0.00 0.00 0.00 73 1016.2
20260507175030 71 240 2.0 8.0 0.00 0.00 0.00 73 1016.3
20260507174021 71 1 1.0 4.0 0.00 0.00 0.00 74 1016.6
20260507173112 70 235 1.0 6.0 0.00 0.00 0.00 74 1016.5
20260507172101 70 285 1.0 3.0 0.00 0.00 0.00 76 1016.8
20260507171111 70 311 1.0 4.0 0.00 0.00 0.00 76 1017.0
20260507165031 69 212 1.0 9.0 0.00 0.00 0.00 75 1016.9
20260507164021 68 22 2.0 4.0 0.00 0.00 0.00 76 1016.9
20260507163152 69 269 2.0 4.0 0.00 0.00 0.00 76 1016.8
20260507162102 69 251 1.0 4.0 0.00 0.00 0.00 77 1016.6
20260507161052 69 1 1.0 4.0 0.00 0.00 0.00 77 1016.5
20260507155052 66 4 1.0 4.0 0.00 0.00 0.00 81 1016.4
20260507154022 66 307 1.0 3.0 0.00 0.00 0.00 82 1016.4
20260507153113 65 336 1.0 3.0 0.00 0.00 0.00 83 1016.4
20260507152103 65 250 1.0 6.0 0.00 0.00 0.00 83 1016.6
20260507151053 65 113 1.0 4.0 0.00 0.00 0.00 83 1016.7
20260507150043 65 300 1.0 3.0 0.00 0.00 0.00 83 1016.6
20260507145033 64 309 2.0 4.0 0.00 0.00 0.00 84 1016.6
20260507144043 64 75 2.0 7.0 0.00 0.00 0.00 84 1016.8
20260507143113 64 269 1.0 3.0 0.00 0.00 0.00 84 1016.5
20260507142103 64 16 2.0 7.0 0.00 0.00 0.00 85 1016.2
20260507141053 64 57 2.0 7.0 0.00 0.00 0.00 85 1015.9
20260507140043 64 295 2.0 6.0 0.00 0.00 0.00 86 1015.5
20260507135033 64 262 2.0 6.0 0.00 0.00 0.00 86 1015.6
20260507134023 65 298 1.0 4.0 0.00 0.00 0.00 86 1015.9
20260507133114 64 357 1.0 4.0 0.00 0.00 0.00 86 1016.2
20260507132104 64 5 2.0 4.0 0.00 0.00 0.00 86 1016.4
20260507131054 65 352 1.0 3.0 0.00 0.00 0.00 86 1016.4
20260507130104 65 261 1.0 4.0 0.00 0.00 0.00 86 1016.4
20260507125034 65 360 2.0 4.0 0.00 0.00 0.00 87 1016.2
20260507124024 65 297 1.0 3.0 0.00 0.00 0.00 87 1016.3
20260507123115 66 318 2.0 6.0 0.00 0.00 0.00 88 1015.8
20260507122105 66 296 1.0 3.0 0.00 0.00 0.00 88 1015.5
20260507121055 65 0 1.0 3.0 0.00 0.00 0.00 87 1015.5
20260507120105 66 22 1.0 3.0 0.00 0.00 0.00 87 1015.2
20260507115035 66 312 1.0 3.0 0.00 0.00 0.00 87 1014.7
20260507114025 66 275 0.0 2.0 0.00 0.00 0.00 86 1014.7
20260507113116 66 285 1.0 3.0 0.00 0.00 0.00 86 1014.8
20260507112106 66 296 1.0 3.0 0.00 0.00 0.00 86 1014.4
20260507111056 66 36 1.0 3.0 0.00 0.00 0.00 85 1014.1
20260507110046 67 276 0.0 2.0 0.00 0.00 0.00 85 1014.4
20260507105056 66 53 0.0 2.0 0.00 0.00 0.00 85 1014.3
20260507104026 66 224 1.0 3.0 0.00 0.00 0.00 85 1014.1
20260507103016 66 53 0.0 3.0 0.00 0.00 0.00 85 1014.1
20260507102107 66 321 1.0 3.0 0.00 0.00 0.00 85 1013.9
20260507101056 66 274 1.0 2.0 0.00 0.00 0.00 85 1014.1
20260507100047 66 203 0.0 2.0 0.00 0.00 0.00 85 1013.7
20260507095037 66 110 0.0 3.0 0.00 0.00 0.00 85 1013.7
20260507094027 66 267 0.0 2.0 0.00 0.00 0.00 85 1013.7
20260507093016 66 239 0.0 2.0 0.00 0.00 0.00 85 1013.5
20260507092107 66 160 1.0 4.0 0.00 0.00 0.00 85 1013.2
20260507091057 66 63 1.0 3.0 0.00 0.00 0.00 85 1013.3
20260507090047 66 12 0.0 3.0 0.00 0.00 0.00 84 1013.3
20260507085058 66 239 1.0 4.0 0.00 0.00 0.00 84 1013.5
20260507084027 66 340 1.0 6.0 0.00 0.00 0.00 84 1013.7
20260507083037 66 304 0.0 2.0 0.00 0.00 0.00 84 1013.7
20260507082148 66 76 1.0 3.0 0.00 0.00 0.00 84 1013.6
20260507081138 66 314 1.0 3.0 0.00 0.00 0.00 83 1013.4
20260507080128 66 36 1.0 3.0 0.00 0.00 0.00 83 1013.5
20260507075038 66 50 1.0 6.0 0.00 0.00 0.00 83 1013.7
20260507074048 66 207 1.0 3.0 0.00 0.00 0.00 83 1013.4
20260507073018 66 278 1.0 3.0 0.00 0.00 0.00 83 1013.7
20260507072129 67 236 1.0 3.0 0.00 0.00 0.00 83 1013.9
20260507071059 67 280 0.0 2.0 0.00 0.00 0.00 83 1013.9
20260507070049 67 176 1.0 6.0 0.00 0.00 0.00 82 1014.2
20260507065039 67 269 1.0 4.0 0.00 0.00 0.00 83 1014.1
20260507064029 67 282 1.0 6.0 0.00 0.00 0.00 82 1014.0
20260507063038 67 320 2.0 4.0 0.00 0.00 0.00 82 1014.2
20260507062110 67 303 1.0 4.0 0.00 0.00 0.00 82 1013.7
20260507061059 67 17 1.0 4.0 0.00 0.00 0.00 82 1014.0
20260507060049 67 193 1.0 4.0 0.00 0.00 0.00 82 1013.6
20260507055039 67 283 1.0 3.0 0.00 0.00 0.00 82 1013.7
20260507054029 67 314 1.0 6.0 0.00 0.00 0.00 82 1013.8
20260507053019 68 322 1.0 4.0 0.00 0.00 0.00 82 1013.7
20260507052110 68 244 2.0 6.0 0.00 0.00 0.00 82 1013.4
20260507051100 68 356 1.0 4.0 0.00 0.00 0.00 81 1013.5
20260507050130 69 345 1.0 3.0 0.00 0.00 0.00 81 1013.4
20260507045040 69 317 1.0 4.0 0.00 0.00 0.00 81 1013.6
20260507044030 69 335 1.0 4.0 0.00 0.00 0.00 81 1013.4
20260507043020 69 184 2.0 4.0 0.00 0.00 0.00 80 1013.6
20260507042131 69 325 1.0 3.0 0.00 0.00 0.00 80 1013.5
20260507041101 70 101 1.0 4.0 0.00 0.00 0.00 80 1013.3
20260507040051 70 358 2.0 4.0 0.00 0.00 0.00 79 1013.4
20260507035041 70 329 2.0 8.0 0.00 0.00 0.00 79 1013.3
20260507034031 71 280 1.0 7.0 0.00 0.00 0.00 78 1013.3
20260507033021 71 324 1.0 7.0 0.00 0.00 0.00 79 1013.0
20260507032112 71 105 2.0 6.0 0.00 0.00 0.00 79 1012.8
20260507031102 72 227 1.0 2.0 0.00 0.00 0.00 79 1012.7
20260507030112 72 339 1.0 3.0 0.00 0.00 0.00 79 1012.6
20260507025041 72 67 1.0 6.0 0.00 0.00 0.00 79 1012.3
20260507024052 73 328 1.0 4.0 0.00 0.00 0.00 79 1012.2
20260507023021 73 326 1.0 3.0 0.00 0.00 0.00 79 1011.9
20260507022112 73 292 1.0 7.0 0.00 0.00 0.00 79 1011.6
20260507021103 73 342 1.0 3.0 0.00 0.00 0.00 79 1011.4
20260507020052 73 243 1.0 3.0 0.00 0.00 0.00 79 1011.2
20260507015042 74 348 1.0 3.0 0.00 0.00 0.00 79 1011.3
20260507014032 74 212 1.0 4.0 0.00 0.00 0.00 79 1011.0
20260507013022 74 199 1.0 3.0 0.00 0.00 0.00 79 1010.8
20260507012133 74 203 0.0 2.0 0.00 0.00 0.00 79 1010.7
20260507011103 75 219 1.0 3.0 0.00 0.00 0.00 79 1010.6
20260507010053 75 326 1.0 6.0 0.00 0.00 0.00 79 1010.5
20260507005043 76 315 0.0 2.0 0.00 0.00 0.00 80 1010.4
20260507004033 76 170 1.0 4.0 0.00 0.00 0.00 79 1010.0
20260507003038 76 20 1.0 6.0 0.00 0.00 0.00 79 1009.8
20260507002134 77 304 1.0 6.0 0.00 0.00 0.00 80 1009.4
20260507001111 78 270 2.0 8.0 0.00 0.00 0.00 78 1009.2
20260507000054 79 156 1.0 4.0 0.00 0.00 0.00 77 1009.3
20260506235044 83 86 3.0 13.0 0.00 0.00 0.00 75 1009.2
20260506234054 85 265 1.0 4.0 0.00 0.00 0.00 79 1008.9
20260506233024 85 93 1.0 4.0 0.00 0.00 0.00 78 1008.7
20260506232135 85 274 0.0 2.0 0.00 0.00 0.00 77 1008.7
20260506231105 86 0.0 1.0 0.00 0.00 0.00 75 1008.6
20260506230115 86 0.0 1.0 0.00 0.00 0.00 73 1008.6
20260506225045 87 0.0 0.0 0.00 0.00 0.00 72 1008.6
20260506224034 87 0.0 1.0 0.00 0.00 0.00 72 1008.6
20260506223045 87 41 0.0 3.0 0.00 0.00 0.00 71 1008.6
20260506222115 87 315 0.0 2.0 0.00 0.00 0.00 71 1008.5
20260506221106 88 185 0.0 2.0 0.00 0.00 0.00 70 1008.5
20260506220215 88 50 0.0 2.0 0.00 0.00 0.00 69 1008.4
20260506215045 88 205 1.0 3.0 0.00 0.00 0.00 72 1008.4
20260506214035 87 150 0.0 3.0 0.00 0.00 0.00 72 1008.5
20260506213025 87 114 1.0 4.0 0.00 0.00 0.00 72 1008.5
20260506212136 87 109 2.0 6.0 0.00 0.00 0.00 73 1008.6
20260506211106 87 132 3.0 6.0 0.00 0.00 0.00 72 1008.5
20260506210116 86 105 0.0 2.0 0.00 0.00 0.00 73 1008.6
20260506205046 86 148 0.0 1.0 0.00 0.00 0.00 74 1008.8
20260506204056 86 143 0.0 2.0 0.00 0.00 0.00 75 1008.9
20260506203026 85 125 1.0 3.0 0.00 0.00 0.00 75 1009.1
20260506202016 86 229 1.0 6.0 0.00 0.00 0.00 74 1009.1
20260506201107 87 147 1.0 4.0 0.00 0.00 0.00 72 1009.1
20260506200057 88 153 1.0 4.0 0.00 0.00 0.00 71 1009.0
20260506195047 86 170 1.0 4.0 0.00 0.00 0.00 73 1009.1
20260506194037 85 221 1.0 4.0 0.00 0.00 0.00 75 1009.4
20260506193027 85 202 1.0 6.0 0.00 0.00 0.00 75 1009.3
20260506192037 85 249 0.0 2.0 0.00 0.00 0.00 76 1009.5
20260506191128 84 185 1.0 2.0 0.00 0.00 0.00 78 1009.6
20260506190057 83 287 0.0 3.0 0.00 0.00 0.00 80 1009.7
20260506185048 84 191 2.0 6.0 0.00 0.00 0.00 76 1009.7